Vertical_Velocity
1 1 -2 -1 3 1 -2 0 4 3 3 -1 -2 -3 -3 -5 -3 -0 -1 1 0 1 0 3 1 -1 2 1 0 -1 -3 -3 -3
-2 -1 -1 0 1 -4 -1 -0 1 3 3 0 -2 -2 -3 -3 -2 -4 -4 -1 -0 1 0 -1 0 -2 -1 -1 -2 1 -1 -0 -3
-1 -1 -4 -1 -3 -2 -1 0 -1 1 1 -1 -0 -1 -4 -3 -2 -2 -6 -1 -4 -3 -2 -1 -1 -0 -4 1 -2 -2 -2 -3 -1
-2 -0 1 1 -1 -1 1 -1 1 0 2 1 0 -1 0 -4 -6 -1 0 -3 0 -4 -1 1 -0 1 4 -1 0 -1 -2 -2 -0
1 -2 -3 4 10 -0 2 1 4 3 2 1 0 1 2 -1 -1 -4 2 -2 -5 -2 -1 -1 6 -1 -3 -0 -4 -5 -1 -0 -1
0 -0 -3 -1 -1 -2 -1 -1 -2 4 3 4 1 -2 -4 -1 -3 2 5 -2 -6 9 8 6 -1 -3 -0 -1 -1 -0 -0 2 -2
-2 -2 1 1 2 -2 1 -2 -0 -1 3 0 0 0 1 -2 -1 3 11 1 1 3 6 -1 2 -1 0 -1 0 0 -2 2 -1
1 -2 -3 -2 -5 -1 1 3 4 2 -5 -10 1 1 -0 2 1 1 5 1 3 -2 1 -3 0 0 -1 -2 2 -1 -1 3 -4
1 0 -1 -3 -1 -0 -2 0 -1 0 3 -1 -3 1 -1 1 -0 -0 -1 -1 6 2 -2 -4 -3 -3 -1 0 -3 -0 2 -4 -1
-0 -2 -2 -3 0 1 -0 -0 0 -2 -1 0 3 -4 -2 -2 -1 -0 5 1 6 -2 -5 2 2 2 -1 0 2 -0 -1 4 -2
0 -0 -2 -2 0 -0 1 -2 -1 -4 1 -2 2 -1 -1 -2 -3 -1 2 8 5 0 -5 -4 -2 0 -2 4 -2 1 -0 -1 -0
-0 -0 -1 1 1 2 1 -0 1 -3 -2 -0 -1 -0 -2 -5 -3 2 6 5 4 -2 1 -1 -4 5 1 -5 7 -0 -0 3 -2
0 -1 -1 1 2 2 3 1 2 1 -0 -3 -3 -1 0 -3 -4 -1 3 4 0 -1 2 -7 3 -4 -5 6 -1 1 -4 -2 1
1 -1 1 1 1 1 1 1 1 0 1 1 1 -1 -1 -1 -3 -4 7 -2 -4 -2 1 -4 5 -2 -4 -2 -2 -1 2 -2 -1
1 0 1 1 0 3 4 1 2 2 -2 2 1 0 3 1 8 -5 -2 -0 -0 -2 -0 -10 -1 -2 -6 -2 -1 -1 -2 -2 -1
2 1 0 2 0 0 3 1 3 3 2 -7 1 1 2 1 -0 4 0 -1 0 -2 5 -5 3 1 -1 4 -4 -4 -1 -1 1
1 0 -1 -2 -2 1 2 -1 -3 2 4 -1 0 0 5 3 -2 3 1 1 -1 -2 -3 3 -3 3 -5 -3 -3 -1 -2 -1 -2
1 1 1 2 -0 -2 0 -2 0 -1 -0 5 -8 -5 -4 -0 -0 2 1 -5 -1 4 -1 2 0 -2 -1 -3 -2 1 -2 -2 1
-1 5 0 5 3 1 0 -0 1 1 -5 2 2 1 -2 -5 -2 -1 -1 -1 5 6 -0 -0 2 1 -1 -1 -0 -2 -1 -2 -2
2 3 -0 -0 1 1 1 -0 -2 -1 1 -4 -3 1 -1 2 -2 -2 -5 8 3 2 -0 2 -2 3 -1 -3 -0 0 -2 -1 0
Height
1547 1549 1552 1554 1557 1559 1558 1559 1561 1562 1563 1564 1565 1566 1567 1569 1571 1572 1572 1574 1575 1575 1576 1576 1577 1577 1577 1577 1577 1577 1577 1577 1577
1547 1550 1552 1555 1558 1559 1558 1560 1562 1564 1565 1566 1567 1568 1569 1570 1572 1573 1574 1575 1576 1577 1578 1578 1578 1578 1579 1579 1579 1579 1578 1578 1577
1546 1550 1552 1556 1558 1560 1560 1562 1563 1566 1566 1568 1569 1570 1571 1572 1573 1574 1575 1576 1578 1579 1579 1579 1580 1581 1581 1581 1581 1581 1580 1579 1579
1548 1550 1553 1556 1559 1561 1562 1564 1565 1567 1569 1570 1571 1572 1573 1573 1575 1576 1578 1578 1579 1579 1580 1580 1581 1583 1583 1583 1583 1582 1581 1582 1582
1548 1551 1554 1557 1559 1562 1563 1565 1567 1569 1570 1572 1573 1574 1575 1575 1575 1577 1579 1580 1580 1581 1581 1583 1584 1585 1585 1585 1584 1584 1585 1584 1585
1548 1551 1554 1557 1559 1562 1564 1565 1567 1570 1572 1574 1575 1575 1576 1577 1578 1579 1581 1582 1583 1584 1585 1586 1586 1586 1587 1587 1586 1586 1586 1587 1587
1548 1551 1555 1557 1559 1561 1563 1565 1568 1571 1574 1575 1577 1578 1578 1579 1580 1581 1583 1584 1586 1587 1587 1588 1588 1588 1589 1589 1589 1588 1589 1590 1591
1547 1550 1554 1556 1557 1559 1562 1565 1568 1570 1573 1576 1578 1579 1580 1581 1581 1583 1585 1586 1588 1588 1591 1591 1591 1590 1591 1591 1591 1591 1591 1592 1593
1547 1549 1553 1555 1556 1560 1563 1566 1568 1571 1573 1575 1577 1580 1582 1583 1584 1585 1587 1589 1589 1589 1592 1591 1592 1591 1591 1591 1592 1593 1593 1593 1594
1546 1549 1553 1554 1557 1559 1562 1566 1568 1571 1573 1576 1578 1580 1582 1584 1585 1586 1588 1591 1590 1592 1593 1593 1593 1593 1593 1593 1594 1595 1596 1596 1595
1546 1548 1551 1554 1556 1559 1562 1565 1568 1570 1573 1576 1578 1581 1583 1585 1586 1588 1590 1591 1593 1593 1594 1594 1595 1595 1596 1596 1596 1596 1597 1597 1597
1545 1548 1550 1554 1556 1559 1562 1564 1567 1570 1573 1576 1579 1581 1583 1585 1588 1589 1590 1592 1594 1595 1595 1595 1596 1598 1599 1599 1600 1598 1598 1598 1598
1544 1546 1549 1554 1556 1559 1562 1564 1566 1569 1572 1574 1577 1580 1582 1585 1587 1590 1591 1591 1593 1596 1597 1598 1598 1600 1600 1601 1601 1600 1599 1600 1599
1542 1545 1548 1552 1555 1559 1561 1563 1566 1568 1571 1573 1576 1579 1582 1583 1586 1590 1591 1591 1594 1596 1598 1600 1600 1601 1602 1602 1601 1600 1599 1600 1600
1540 1543 1547 1550 1553 1557 1560 1562 1564 1567 1569 1572 1575 1578 1580 1582 1584 1587 1590 1591 1593 1595 1597 1600 1600 1601 1602 1602 1601 1600 1600 1600 1600
1537 1541 1544 1547 1550 1554 1558 1560 1562 1565 1567 1570 1574 1577 1580 1581 1584 1585 1588 1590 1591 1594 1596 1597 1599 1600 1602 1601 1601 1600 1600 1600 1600
1534 1537 1540 1544 1549 1552 1554 1556 1558 1562 1565 1568 1572 1576 1579 1579 1581 1583 1585 1587 1588 1590 1593 1595 1596 1597 1599 1600 1600 1600 1600 1600 1600
1530 1533 1537 1540 1544 1547 1550 1552 1555 1558 1562 1566 1567 1572 1573 1575 1578 1580 1582 1584 1585 1587 1589 1591 1593 1595 1596 1597 1598 1598 1599 1600 1600
1526 1530 1534 1537 1539 1542 1545 1549 1552 1555 1558 1563 1564 1565 1567 1570 1573 1577 1578 1581 1582 1583 1585 1588 1590 1591 1594 1595 1595 1597 1598 1597 1598
1522 1526 1529 1532 1535 1539 1541 1544 1547 1551 1555 1556 1559 1562 1564 1566 1565 1567 1573 1575 1578 1580 1582 1584 1586 1588 1591 1592 1592 1593 1594 1595 1594